Caldwell, NJ

1:21 AM EST on November 20, 2019 (GMT -0500)
Essex County

Weather History for KCDW - September, 2019

Change the Weather History Date:

Sunday, September 1, 2019

  Actual Average Record
Temperature  
Mean Temperature 70 °F -  
Max Temperature 79 °F 81 °F 100 °F (1953)
Min Temperature 61 °F 56 °F 43 °F (1984)
Cooling Degree Days 4    
Growing Degree Days 20 (Base 50)    
Moisture  
Dew Point 58 °F    
Average Humidity 65    
Maximum Humidity 84    
Minimum Humidity 47    
Precipitation  
Precipitation 0.00 in - - ()
Sea Level Pressure  
Sea Level Pressure 30.32 in    
Wind  
Wind Speed 3 mph ()    
Max Wind Speed 12 mph    
Max Gust Speed 17 mph    
Visibility 10.0 miles    
Events      
Averages and records for this station are not official NWS values.
T = Trace of Precipitation, MM = Missing Value Source: Averaged Metar Reports

Daily Weather History Graph

Daily Weather History Graph

Search for Another Location

Airport or City:

Astronomy

Sep. 01, 2019 Rise Set
Actual Time 6:23 AM EDT 7:29 PM EDT
Civil Twilight 5:55 AM EDT 7:58 PM EDT
Nautical Twilight 5:21 AM EDT 8:31 PM EDT
Astronomical Twilight 4:46 AM EDT 9:06 PM EDT
Moon 8:51 AM EDT (9/1) 9:14 PM EDT (9/1)
Length of Visible Light 14h 02m
Length of Day
13h 06m
Waxing Crescent, 8% of the Moon is Illuminated
Sep 1
Waxing Crescent
Sep 5
First Quarter
Sep 14
Full
Sep 21
Last Quarter
Sep 28
New

Hourly Weather History & Observations

Time (EDT) Temp. Dew Point Humidity Pressure Visibility Wind Dir Wind Speed Gust Speed Precip Events Conditions
12:53 AM 64.0 °F 57.0 °F 78% 30.33 in 10.0 mi Calm Calm - N/A   Clear
1:53 AM 63.0 °F 57.0 °F 81% 30.33 in 10.0 mi Calm Calm - N/A   Clear
2:53 AM 62.1 °F 57.0 °F 84% 30.34 in 10.0 mi Calm Calm - N/A   Clear
3:53 AM 62.1 °F 57.0 °F 84% 30.34 in 10.0 mi Calm Calm - N/A   Clear
4:53 AM 62.1 °F 55.9 °F 80% 30.34 in 10.0 mi Calm Calm - N/A   Clear
5:53 AM 62.1 °F 55.0 °F 78% 30.35 in 10.0 mi NE 3.5 mph - N/A   Clear
6:53 AM 61.0 °F 55.9 °F 83% 30.36 in 10.0 mi Calm Calm - N/A   Clear
7:53 AM 64.9 °F 55.9 °F 73% 30.36 in 10.0 mi Calm Calm - N/A   Clear
8:53 AM 68.0 °F 55.0 °F 63% 30.36 in 10.0 mi East 6.9 mph - N/A   Clear
9:53 AM 72.0 °F 55.9 °F 57% 30.37 in 10.0 mi ENE 9.2 mph - N/A   Clear
10:53 AM 75.0 °F 57.0 °F 53% 30.37 in 10.0 mi ENE 9.2 mph - N/A   Clear
11:53 AM 75.9 °F 59.0 °F 56% 30.36 in 10.0 mi SE 8.1 mph - N/A   Clear
12:53 PM 78.1 °F 57.0 °F 48% 30.35 in 10.0 mi SSE 9.2 mph - N/A   Partly Cloudy
1:53 PM 78.1 °F 57.9 °F 50% 30.33 in 10.0 mi SSE 9.2 mph - N/A   Mostly Cloudy
2:53 PM 78.1 °F 57.0 °F 48% 30.31 in 10.0 mi South 8.1 mph - N/A   Clear
3:53 PM 77.0 °F 57.0 °F 50% 30.31 in 10.0 mi South 10.4 mph - N/A   Scattered Clouds
4:53 PM 77.0 °F 55.0 °F 47% 30.29 in 10.0 mi SSE 9.2 mph - N/A   Clear
5:53 PM 77.0 °F 57.9 °F 52% 30.29 in 10.0 mi South 10.4 mph - N/A   Clear
6:53 PM 75.0 °F 59.0 °F 57% 30.29 in 10.0 mi South 11.5 mph 17.3 mph N/A   Clear
7:53 PM 73.0 °F 59.0 °F 61% 30.28 in 10.0 mi South 4.6 mph - N/A   Clear
8:53 PM 72.0 °F 61.0 °F 68% 30.27 in 10.0 mi SE 3.5 mph - N/A   Partly Cloudy
9:53 PM 72.0 °F 63.0 °F 73% 30.27 in 10.0 mi Calm Calm - N/A   Scattered Clouds
10:53 PM 72.0 °F 61.0 °F 68% 30.26 in 10.0 mi SE 5.8 mph - N/A   Clear
11:53 PM 72.0 °F 62.1 °F 71% 30.25 in 10.0 mi SSE 6.9 mph - N/A   Mostly Cloudy